Overview Statistics Trail Chart Weather Telemetry Raw packets
 

This is the latest recevied weather packets stored in our database for station/object F8KHU-13. If no packets are shown the sender has not sent any weather packets the latest 10 day(s).

<< 5 6 7 8 9 10 11 >>
Time Temp. Humidity Pressure Rain* Wind** Luminosity Snow
1788610244 26.67° C 23% 1024.4 hPa 0 mm - 0 W/m² -
1788610224 27.78° C 24% 1024.5 hPa 0 mm - 0 W/m² -
1788609364 25.56° C 25% 1024.4 hPa 0 mm - 0 W/m² -
1788609344 25° C 25% 1024.4 hPa 0 mm - 0 W/m² -
1788609335 25° C 25% 1024.4 hPa 0 mm - 0 W/m² -
1788608464 22.78° C 26% 1024.3 hPa 0 mm - 0 W/m² -
1788608444 21.67° C 27% 1024.3 hPa 0 mm - 0 W/m² -
1788608424 22.78° C 26% 1024.2 hPa 0 mm - 0 W/m² -
1788607564 20.56° C 27% 1024.3 hPa 0 mm - 0 W/m² -
1788607544 20.56° C 27% 1024.3 hPa 0 mm - 0 W/m² -
1788606664 20° C 28% 1024.2 hPa 0 mm - 0 W/m² -
1788606645 20° C 28% 1024.2 hPa 0 mm - 0 W/m² -
1788606624 20° C 28% 1024.2 hPa 0 mm - 0 W/m² -
1788605764 20° C 28% 1024.1 hPa 0 mm - 0 W/m² -
1788605744 20° C 28% 1024 hPa 0 mm - 0 W/m² -
1788605724 20° C 28% 1024.1 hPa 0 mm - 0 W/m² -
1788604865 18.89° C 28% 1024 hPa 0 mm - 0 W/m² -
1788604825 18.89° C 28% 1024 hPa 0 mm - 0 W/m² -
1788603965 18.89° C 28% 1023.9 hPa 0 mm - 0 W/m² -
1788603945 18.89° C 28% 1023.9 hPa 0 mm - 0 W/m² -
1788603925 18.89° C 28% 1023.8 hPa 0 mm - 0 W/m² -
1788603065 18.89° C 28% 1023.7 hPa 0 mm - 0 W/m² -
1788603049 18.89° C 28% 1023.7 hPa 0 mm - 0 W/m² -
1788603049 17.78° C 29% 1023.7 hPa 0 mm - 0 W/m² -
1788602165 17.78° C 29% 1023.5 hPa 0 mm - 0 W/m² -

* Rain latest hour (hover to see other rain measurements)
** Current wind speed in m/s (hover to see current wind gust speed)